Weather History for Wenatchee, WA

Change the Weather History Date:

Monday, December 31, 2012

  Actual Average Record
Temperature  
Mean Temperature 24 °F 27 °F  
Max Temperature 27 °F 31 °F 49 °F (1998)
Min Temperature 20 °F 23 °F -13 °F (1968)
Degree Days  
Heating Degree Days 41 38  
Month to date heating degree days 1008 1145  
Since 1 July heating degree days 2167 2520  
Cooling Degree Days 0 0  
Month to date cooling degree days 0 0  
Year to date cooling degree days 888 790  
Moisture  
Dew Point 20 °F    
Average Humidity 82    
Maximum Humidity 92    
Minimum Humidity 71    
Precipitation  
Precipitation 0.00 in 0.04 in 0.75 in (1996)
Month to date precipitation 1.71 1.40  
Year to date precipitation 9.22 8.01  
Sea Level Pressure  
Sea Level Pressure 30.40 in    
Wind  
Wind Speed 2 mph (NW)    
Max Wind Speed 9 mph    
Max Gust Speed 10 mph    
Visibility 9 miles    
Events      
T = Trace of Precipitation, MM = Missing Value Source: NWS Daily Summary

Daily Weather History Graph

Daily Weather History Graph

Search for Another Location

Airport:

Trip Planner

Search our weather history database for the weather conditions in past years. The results will help you decide how hot, cold, wet, or windy it might be!

Date:

Astronomy

Dec. 31, 2012 Rise Set
Actual Time 7:48 AM PST 4:20 PM PST
Civil Twilight 7:12 AM PST 4:55 PM PST
Nautical Twilight 6:33 AM PST 5:34 PM PST
Astronomical Twilight 5:56 AM PST 6:12 PM PST
Moon 8:11 PM PST (12/31) 9:18 AM PST (12/31)
Length of Visible Light 9h 43m
Length of Day
8h 32m
Waning Gibbous, 89% of the Moon is Illuminated
Dec 31
Waning Gibbous
Jan 4
Last Quarter
Jan 11
New
Jan 18
First Quarter
Jan 26
Full

Hourly Weather History & Observations

Time (PST) Temp. Windchill Dew Point Humidity Pressure Visibility Wind Dir Wind Speed Gust Speed Precip Events Conditions
12:04 AM 24.8 °F 19.1 °F 21.2 °F 86% 30.31 in 6.0 mi East 4.6 mph - N/A   Overcast
12:11 AM 24.8 °F 20.5 °F 21.2 °F 86% 30.31 in 7.0 mi East 3.5 mph - N/A   Overcast
12:55 AM 24.1 °F - 21.9 °F 91% 30.37 in 9.0 mi Calm Calm - N/A   Overcast
1:55 AM 24.1 °F 17.0 °F 21.0 °F 88% 30.38 in 10.0 mi East 5.8 mph - N/A   Overcast
2:55 AM 24.1 °F - 19.9 °F 84% 30.38 in 10.0 mi Calm Calm - N/A   Overcast
3:55 AM 24.1 °F 18.2 °F 19.9 °F 84% 30.38 in 10.0 mi ENE 4.6 mph - N/A   Overcast
4:55 AM 24.1 °F 19.7 °F 19.9 °F 84% 30.37 in 10.0 mi ESE 3.5 mph - N/A   Overcast
5:55 AM 24.1 °F - 21.0 °F 88% 30.37 in 5.0 mi Calm Calm - N/A   Overcast
6:16 AM 24.8 °F - 21.2 °F 86% 30.32 in 5.0 mi Calm Calm - N/A   Overcast
6:25 AM 24.8 °F - 21.2 °F 86% 30.32 in 5.0 mi Calm Calm - N/A   Overcast
6:55 AM 24.1 °F - 21.9 °F 91% 30.37 in 6.0 mi Calm Calm - N/A   Overcast
7:55 AM 25.0 °F - 21.9 °F 88% 30.38 in 4.0 mi Calm Calm - N/A   Overcast
8:55 AM 24.1 °F - 21.9 °F 91% 30.38 in 4.0 mi Calm Calm - N/A   Overcast
9:55 AM 25.0 °F - 23.0 °F 92% 30.40 in 5.0 mi Calm Calm - N/A   Overcast
10:55 AM 25.0 °F - 21.9 °F 88% 30.40 in 10.0 mi Calm Calm - N/A   Overcast
11:46 AM 26.6 °F - 21.2 °F 80% 30.34 in 10.0 mi Calm Calm - N/A   Mostly Cloudy
11:55 AM 26.1 °F - 21.9 °F 84% 30.40 in 10.0 mi Calm Calm - N/A   Overcast
12:39 PM 26.6 °F 22.6 °F 23.0 °F 86% 30.35 in 10.0 mi West 3.5 mph - N/A   Overcast
12:55 PM 27.0 °F 23.0 °F 21.9 °F 81% 30.40 in 10.0 mi WNW 3.5 mph - N/A   Overcast
1:14 PM 26.6 °F 21.2 °F 21.2 °F 80% 30.35 in 10.0 mi West 4.6 mph - N/A   Overcast
1:30 PM 26.6 °F 21.2 °F 21.2 °F 80% 30.36 in 10.0 mi West 4.6 mph - N/A   Overcast
1:55 PM 27.0 °F 20.5 °F 21.0 °F 78% 30.41 in 10.0 mi West 5.8 mph - N/A   Overcast
2:55 PM 27.0 °F 21.6 °F 19.9 °F 75% 30.43 in 10.0 mi West 4.6 mph - N/A   Overcast
4:55 PM 26.1 °F 21.9 °F 19.0 °F 75% 30.45 in 10.0 mi West 3.5 mph - N/A   Mostly Cloudy
5:05 PM 24.8 °F 20.5 °F 19.4 °F 80% 30.40 in 10.0 mi WNW 3.5 mph - N/A   Scattered Clouds
5:25 PM 24.8 °F - 19.4 °F 80% 30.41 in 10.0 mi Calm Calm - N/A   Mostly Cloudy
5:55 PM 24.1 °F 18.2 °F 17.1 °F 75% 30.46 in 10.0 mi NNW 4.6 mph - N/A   Overcast
6:55 PM 23.0 °F 18.4 °F 16.0 °F 74% 30.46 in 10.0 mi North 3.5 mph - N/A   Scattered Clouds
7:53 PM 21.2 °F 14.9 °F 15.8 °F 80% 30.43 in 10.0 mi NNW 4.6 mph - N/A   Mostly Cloudy
7:55 PM 21.0 °F 14.6 °F 14.0 °F 74% 30.49 in 10.0 mi NNW 4.6 mph - N/A   Mostly Cloudy
8:55 PM 23.0 °F 18.4 °F 16.0 °F 74% 30.51 in 10.0 mi NW 3.5 mph - N/A   Overcast
9:55 PM 23.0 °F - 16.0 °F 74% 30.52 in 10.0 mi Calm Calm - N/A   Overcast
10:55 PM 24.1 °F 17.0 °F 18.0 °F 77% 30.54 in 10.0 mi West 5.8 mph - N/A   Overcast
11:55 PM 24.1 °F - 19.0 °F 81% 30.54 in 10.0 mi Calm Calm - N/A   Overcast